Wind_Speed
9 8 7 8 9 9 8 7 7 8 8 7 8 10 11 11 11 10 10 9 8 8 8 9 9 9 10 10 10 11 11 11 12 12 13 13 13 12 12 12 12 12 12 11
10 9 8 9 10 10 9 10 10 9 8 8 10 11 11 12 12 11 11 10 9 9 9 10 10 10 11 11 11 12 12 12 12 13 13 13 13 13 13 13 13 13 12 12
12 10 11 11 10 10 10 12 11 9 9 9 11 13 12 11 12 13 12 11 11 10 9 11 11 11 11 11 11 12 13 13 13 13 14 13 13 14 14 13 14 14 13 13
15 13 15 13 11 13 12 13 13 11 11 11 11 13 14 11 12 13 14 13 14 13 11 10 12 11 12 12 11 12 13 13 13 14 14 14 14 15 15 15 14 14 15 15
15 15 16 14 14 14 14 13 13 12 13 14 14 14 14 13 13 15 15 15 15 14 12 11 12 13 12 12 12 12 13 14 14 14 15 15 15 16 16 16 15 15 16 16
18 17 17 16 15 15 15 14 13 14 15 18 15 16 17 15 15 17 15 15 15 14 13 13 13 14 14 13 13 13 14 14 14 15 15 15 16 17 17 16 16 17 17 18
18 17 17 16 15 16 15 14 14 15 16 17 13 15 16 15 14 16 17 17 16 15 15 15 14 14 15 15 14 15 15 15 15 15 16 17 17 17 18 18 18 18 18 19
18 18 18 17 17 17 17 15 16 17 17 18 17 17 15 15 17 17 17 18 17 14 15 15 16 15 16 16 16 16 16 16 16 17 18 18 18 19 20 20 20 20 20 20
18 17 17 18 19 18 17 17 17 18 18 19 19 18 17 15 17 18 18 19 18 15 16 17 17 17 17 18 18 17 17 18 18 19 19 20 20 20 21 21 22 22 22 22
19 19 17 17 18 18 18 16 17 17 17 18 18 17 16 17 18 19 19 19 18 17 17 18 18 18 19 18 19 19 18 19 20 20 21 22 22 22 23 23 24 24 24 24
22 21 19 18 20 18 18 18 18 17 17 17 16 17 19 21 19 19 19 19 18 18 20 19 18 19 19 20 21 21 21 21 22 22 23 24 24 24 24 24 25 25 25 26
22 22 21 20 19 19 18 19 17 18 19 17 17 20 21 22 19 20 20 19 20 21 21 19 19 20 20 21 23 23 24 23 24 24 25 26 26 25 26 26 26 26 26 27
24 23 22 19 18 19 19 19 18 18 19 20 20 23 23 23 23 22 21 22 24 23 22 22 21 22 22 23 24 25 25 26 26 27 27 27 27 27 27 27 27 27 27 27
25 24 23 21 18 18 21 20 18 19 20 21 22 23 24 23 25 23 22 23 24 24 23 23 23 24 24 25 26 26 27 28 28 28 28 28 28 29 29 28 28 28 28 28
24 24 25 23 20 17 19 20 20 20 20 22 22 23 25 25 26 25 26 26 25 25 25 24 24 26 27 27 27 28 29 29 29 30 30 30 30 29 29 29 29 29 29 29
23 24 25 24 22 20 20 21 20 20 20 21 22 23 24 26 27 26 27 27 26 27 27 26 26 27 28 28 29 30 31 30 31 31 31 30 29 29 30 30 30 30 30 30
24 24 24 25 24 23 23 22 23 22 22 22 23 24 26 26 28 27 27 27 28 28 27 27 28 29 30 30 30 31 31 31 31 30 30 30 30 30 30 31 30 30 31 32
25 24 24 23 24 25 25 23 23 24 24 25 26 27 29 29 28 28 28 28 28 28 29 29 29 29 31 31 31 31 31 31 30 30 30 30 30 30 30 31 31 30 31 32
25 25 24 24 24 25 25 23 22 25 27 26 27 28 28 27 28 29 30 29 28 29 29 30 30 30 31 31 31 31 30 31 30 30 30 30 30 30 31 31 31 31 33 33
25 26 25 25 25 25 25 23 24 26 29 29 29 29 29 29 31 31 30 29 29 30 30 30 30 31 31 31 31 30 30 30 31 30 30 31 31 31 31 31 32 32 33 33
25 26 26 27 27 28 27 26 25 28 31 30 29 29 29 29 30 31 30 30 30 30 30 30 30 31 31 31 31 31 31 30 30 30 31 31 31 32 32 33 33 34 34 33
26 26 28 28 28 29 28 28 28 30 31 31 31 31 31 31 32 31 31 31 30 31 31 31 31 31 31 31 31 31 31 30 30 31 31 31 32 33 33 34 35 35 35 35
28 28 28 30 30 30 29 30 30 31 32 32 32 33 33 33 33 32 32 32 32 32 31 31 31 32 31 31 31 31 31 31 31 31 32 32 33 33 34 34 35 35 36 36
31 31 31 32 31 31 32 31 30 31 32 33 34 34 34 34 34 34 33 33 32 31 32 32 32 32 32 31 31 31 31 32 32 31 32 32 33 34 34 35 36 36 37 37
30 31 33 34 33 33 33 34 34 34 34 34 35 35 35 35 35 35 35 34 34 34 34 34 33 34 33 33 32 32 32 32 32 32 32 33 34 35 35 35 36 36 37 37
32 32 34 36 35 35 36 37 37 36 35 35 35 35 36 35 35 35 35 35 36 36 35 35 34 33 32 33 33 32 32 33 33 33 33 34 34 35 35 35 36 36 37 37
Wind_Direction
208 219 231 233 231 234 242 255 272 274 276 279 286 299 302 311 309 310 314 318 327 328 330 333 337 337 340 340 340 341 340 337 335 336 337 338 338 337 335 334 335 333 333 336
215 229 241 240 239 239 244 247 248 258 269 269 278 289 290 300 305 305 302 305 306 309 320 323 326 328 333 333 331 333 336 334 332 331 331 332 333 333 330 328 331 331 327 330
227 230 238 238 240 246 241 253 252 251 257 268 272 282 283 289 302 303 300 296 303 304 309 316 319 324 326 329 326 327 329 330 329 330 328 329 331 330 328 327 323 325 326 325
233 231 242 240 242 247 246 253 258 258 253 261 261 272 278 284 294 299 297 295 297 298 297 303 309 317 320 322 323 324 326 326 327 327 327 329 330 329 324 324 319 320 322 322
228 233 243 243 244 246 248 250 253 253 254 257 252 261 270 281 287 288 291 293 297 297 293 296 302 309 313 316 317 318 320 320 321 322 322 323 325 326 324 324 323 322 319 318
224 231 240 242 243 245 246 249 251 256 258 261 262 262 270 277 283 286 290 292 296 295 292 297 299 300 304 310 311 312 316 317 317 318 318 319 320 323 323 321 319 319 318 316
232 233 238 241 243 242 242 247 257 261 266 267 267 262 268 273 275 278 285 289 293 292 292 295 296 295 298 299 302 309 311 315 316 315 314 314 316 318 321 320 317 316 316 316
242 238 240 244 245 243 240 242 258 265 270 273 268 260 262 267 271 273 283 287 286 289 289 292 294 293 293 294 297 302 307 310 311 313 313 313 314 315 317 318 316 314 313 313
240 243 247 249 249 242 242 240 250 262 265 268 268 266 267 271 271 272 278 281 285 290 290 291 291 290 290 290 295 301 306 307 308 310 311 311 312 312 313 314 314 313 312 311
233 237 238 247 248 243 243 246 247 252 262 268 275 274 277 275 273 274 277 278 284 290 290 291 289 288 288 287 292 298 302 304 306 307 308 309 308 308 309 308 309 310 309 308
231 234 236 242 241 243 244 243 241 247 253 262 269 273 275 275 277 281 280 281 281 286 290 289 287 287 288 290 293 296 298 300 301 302 304 305 305 305 306 307 308 307 306 306
231 231 234 240 246 249 247 246 241 247 255 259 265 270 271 270 272 275 278 278 278 281 285 285 285 286 288 290 292 293 295 297 298 299 301 301 301 302 304 306 307 306 305 304
228 229 233 236 241 250 245 241 242 243 252 258 260 266 269 271 275 278 279 278 281 280 279 280 281 283 286 288 290 292 293 294 295 296 298 298 298 299 301 303 305 306 303 302
230 228 230 233 233 243 250 248 247 247 247 253 258 265 271 275 277 281 280 280 280 280 279 278 280 282 285 287 288 289 291 293 294 294 294 296 296 298 300 300 302 303 303 302
235 234 232 233 233 239 250 253 253 249 247 250 256 264 269 272 276 279 281 280 280 277 275 276 278 280 284 287 289 290 292 293 293 293 292 293 295 296 297 298 299 300 300 301
239 239 235 232 231 235 241 246 252 254 251 253 258 263 268 267 271 275 277 281 282 279 278 278 277 279 282 285 287 290 291 291 291 292 292 293 294 295 295 295 296 298 299 299
237 239 240 240 236 238 241 240 246 250 252 254 259 262 263 264 268 275 276 279 280 280 281 280 280 282 284 285 287 289 290 291 291 292 292 293 294 294 295 294 294 296 297 298
243 242 243 244 242 244 249 249 248 250 251 252 255 260 262 265 270 274 276 276 277 279 280 279 281 283 285 286 287 288 289 289 289 290 291 293 293 293 293 294 294 295 296 297
241 245 245 244 247 249 250 252 251 252 253 253 255 258 262 267 269 272 274 275 276 278 279 281 283 283 284 286 287 287 287 287 288 290 291 292 292 292 293 294 294 294 294 295
244 246 247 247 248 248 251 254 253 255 259 256 256 259 264 268 270 274 276 276 276 278 280 282 283 284 285 286 286 286 286 287 288 290 291 292 293 293 294 295 295 295 295 294
244 246 247 247 247 250 252 252 253 254 257 258 260 260 264 270 272 274 276 278 279 279 280 281 282 283 285 286 286 286 287 288 289 289 291 292 293 293 293 293 295 295 294 295
243 246 245 246 247 249 251 252 252 256 260 261 263 265 267 269 271 273 274 276 279 281 282 282 283 283 284 286 286 286 287 288 288 288 289 291 292 292 292 294 295 295 295 295
240 243 246 248 248 250 250 252 255 256 259 261 263 265 268 270 271 272 273 276 278 280 282 283 284 284 284 285 284 284 285 286 287 288 288 291 293 294 294 294 295 295 296 296
241 242 244 247 252 254 254 255 256 258 259 261 263 265 267 269 270 272 273 275 276 279 282 283 284 284 283 283 284 284 283 284 286 288 290 291 292 293 294 295 295 295 296 296
247 247 248 250 251 252 255 256 259 262 263 264 265 266 266 269 270 272 273 273 276 279 281 283 284 283 282 281 281 283 284 285 286 288 289 290 292 293 293 294 295 295 296 297
250 252 253 253 254 256 257 258 261 264 265 267 268 268 268 269 269 271 272 273 275 277 279 281 282 283 284 282 282 282 284 285 286 288 289 290 292 293 293 294 294 295 296 296
Height
5912 5915 5916 5918 5920 5922 5923 5924 5925 5925 5924 5924 5923 5923 5921 5920 5919 5919 5917 5915 5914 5914 5914 5912 5912 5911 5910 5909 5908 5906 5905 5904 5903 5901 5900 5898 5897 5895 5894 5892 5891 5890 5889 5887
5911 5913 5916 5917 5919 5920 5922 5922 5923 5924 5923 5923 5922 5922 5920 5918 5918 5917 5917 5916 5914 5914 5913 5912 5911 5910 5909 5908 5907 5906 5904 5903 5902 5901 5899 5898 5896 5894 5893 5892 5890 5889 5888 5887
5910 5914 5914 5915 5917 5919 5920 5921 5921 5920 5921 5922 5921 5920 5917 5916 5916 5916 5915 5914 5913 5912 5910 5911 5910 5909 5908 5907 5906 5905 5904 5902 5901 5900 5898 5897 5895 5894 5892 5891 5889 5888 5887 5886
5908 5911 5912 5913 5915 5916 5917 5918 5918 5919 5919 5919 5920 5919 5917 5915 5915 5915 5914 5913 5912 5911 5910 5909 5908 5908 5907 5906 5905 5904 5903 5902 5900 5899 5897 5896 5895 5893 5891 5890 5888 5887 5886 5884
5905 5908 5909 5911 5913 5914 5914 5915 5916 5916 5916 5917 5916 5916 5915 5913 5913 5912 5911 5911 5911 5909 5908 5907 5907 5906 5906 5905 5904 5903 5902 5900 5899 5898 5896 5895 5893 5892 5890 5888 5887 5885 5884 5883
5902 5904 5906 5908 5910 5911 5912 5912 5912 5913 5913 5913 5913 5913 5912 5911 5911 5910 5909 5909 5908 5907 5906 5906 5905 5904 5903 5903 5902 5901 5900 5899 5897 5896 5895 5893 5892 5890 5888 5887 5885 5884 5882 5880
5898 5900 5902 5904 5905 5907 5908 5909 5910 5910 5909 5910 5911 5910 5910 5909 5909 5907 5907 5906 5905 5905 5904 5904 5903 5902 5901 5900 5900 5899 5898 5897 5895 5894 5893 5891 5889 5888 5886 5884 5883 5881 5880 5878
5895 5897 5899 5900 5902 5903 5904 5906 5908 5908 5908 5907 5907 5905 5905 5905 5905 5905 5904 5903 5902 5902 5901 5901 5901 5900 5899 5898 5897 5896 5895 5894 5893 5892 5890 5888 5887 5885 5883 5881 5880 5878 5876 5874
5892 5894 5896 5897 5898 5899 5900 5902 5904 5905 5905 5904 5903 5902 5902 5900 5901 5901 5901 5900 5899 5898 5898 5898 5898 5897 5896 5894 5894 5893 5892 5891 5890 5889 5887 5886 5884 5882 5880 5878 5876 5874 5872 5871
5887 5889 5892 5893 5894 5895 5897 5899 5901 5901 5900 5900 5900 5899 5898 5898 5897 5897 5897 5897 5896 5896 5895 5895 5894 5893 5892 5890 5889 5890 5889 5888 5887 5885 5884 5882 5880 5878 5876 5874 5872 5870 5868 5866
5882 5885 5887 5889 5889 5891 5892 5895 5896 5897 5898 5898 5897 5898 5896 5895 5893 5893 5892 5892 5893 5893 5892 5892 5891 5890 5889 5887 5887 5886 5885 5884 5883 5881 5880 5878 5876 5874 5872 5870 5868 5865 5864 5861
5876 5879 5881 5883 5885 5887 5888 5890 5892 5894 5893 5894 5894 5895 5892 5890 5888 5888 5888 5887 5888 5888 5888 5888 5887 5886 5885 5884 5882 5881 5880 5879 5878 5877 5875 5873 5871 5869 5867 5865 5863 5860 5858 5856
5870 5873 5876 5879 5883 5883 5883 5885 5887 5889 5890 5890 5891 5891 5887 5886 5885 5884 5883 5884 5884 5883 5883 5883 5883 5882 5881 5879 5878 5876 5875 5874 5873 5872 5870 5867 5865 5863 5861 5859 5857 5855 5853 5851
5864 5867 5871 5874 5876 5878 5878 5880 5882 5883 5884 5885 5885 5885 5882 5881 5881 5879 5877 5878 5878 5878 5878 5878 5878 5877 5875 5874 5873 5871 5870 5868 5867 5865 5863 5861 5859 5857 5855 5853 5851 5849 5847 5845
5859 5862 5864 5867 5869 5872 5875 5876 5877 5878 5878 5880 5881 5880 5878 5876 5876 5875 5874 5873 5873 5872 5872 5872 5872 5871 5870 5868 5867 5865 5864 5862 5860 5858 5856 5854 5852 5851 5849 5847 5844 5842 5840 5838
5853 5856 5858 5861 5864 5866 5869 5871 5872 5872 5873 5874 5874 5874 5872 5871 5871 5869 5869 5868 5867 5867 5866 5866 5865 5864 5863 5862 5861 5859 5857 5855 5853 5851 5849 5847 5845 5843 5842 5840 5838 5836 5833 5831
5847 5850 5852 5855 5858 5859 5861 5865 5866 5867 5867 5868 5868 5867 5865 5865 5865 5863 5863 5862 5861 5861 5860 5859 5859 5858 5857 5855 5854 5852 5850 5848 5846 5843 5842 5840 5838 5836 5835 5832 5831 5829 5826 5824
5842 5844 5846 5849 5852 5853 5858 5859 5859 5860 5860 5861 5861 5861 5859 5858 5858 5858 5857 5856 5855 5854 5853 5853 5852 5850 5849 5848 5846 5844 5843 5841 5838 5836 5834 5833 5831 5829 5827 5825 5823 5821 5819 5816
5837 5838 5840 5843 5844 5847 5850 5850 5852 5853 5852 5853 5853 5853 5851 5851 5851 5851 5850 5850 5849 5848 5846 5845 5844 5843 5841 5840 5838 5837 5835 5833 5831 5829 5827 5826 5824 5822 5819 5817 5815 5813 5811 5808
5830 5832 5835 5836 5838 5840 5843 5843 5844 5846 5845 5846 5845 5846 5846 5845 5844 5844 5843 5842 5841 5840 5839 5838 5836 5835 5834 5832 5831 5829 5827 5825 5824 5822 5820 5818 5816 5814 5812 5809 5807 5804 5802 5799
5824 5825 5827 5829 5831 5832 5834 5836 5837 5839 5837 5837 5837 5837 5838 5837 5837 5836 5835 5835 5834 5833 5831 5830 5829 5827 5826 5824 5823 5821 5819 5818 5816 5814 5812 5810 5808 5806 5803 5801 5799 5796 5793 5791
5818 5819 5821 5822 5824 5826 5826 5828 5829 5829 5829 5830 5829 5830 5830 5830 5829 5829 5828 5828 5826 5825 5824 5823 5821 5820 5818 5816 5814 5813 5811 5809 5808 5806 5804 5802 5800 5797 5795 5792 5790 5787 5784 5782
5810 5813 5813 5815 5817 5817 5817 5818 5820 5820 5821 5822 5822 5822 5822 5822 5821 5821 5820 5820 5819 5817 5816 5815 5813 5812 5810 5808 5807 5805 5803 5801 5800 5798 5796 5793 5791 5789 5786 5783 5781 5778 5775 5772
5802 5803 5805 5807 5808 5809 5810 5810 5811 5811 5812 5813 5813 5814 5814 5814 5813 5813 5812 5811 5810 5809 5808 5806 5805 5804 5802 5800 5798 5797 5795 5793 5791 5789 5787 5785 5782 5780 5777 5774 5771 5769 5766 5763
5793 5795 5796 5798 5800 5801 5802 5802 5801 5802 5803 5804 5804 5805 5805 5805 5804 5803 5803 5803 5801 5800 5799 5798 5796 5795 5793 5791 5790 5788 5786 5785 5783 5781 5779 5776 5774 5771 5768 5765 5762 5759 5756 5752
5785 5786 5788 5789 5790 5791 5792 5793 5793 5794 5795 5795 5795 5796 5796 5795 5795 5794 5794 5793 5792 5791 5790 5789 5787 5786 5784 5782 5781 5779 5777 5776 5773 5771 5769 5767 5764 5762 5759 5756 5753 5750 5747 5743